Weather History for Roanoke, VA

Change the Weather History Date:

Monday, December 6, 2010

  Actual Average Record
Temperature  
Mean Temperature 27 °F 41 °F  
Max Temperature 31 °F 50 °F 80 °F (1998)
Min Temperature 23 °F 32 °F 15 °F (1984)
Degree Days  
Heating Degree Days 38 24  
Month to date heating degree days 181 139  
Since 1 July heating degree days 883 943  
Cooling Degree Days 0 0  
Month to date cooling degree days 0 0  
Year to date cooling degree days 1677 1208  
Moisture  
Dew Point 10 °F    
Average Humidity 49    
Maximum Humidity 55    
Minimum Humidity 42    
Precipitation  
Precipitation T in 0.10 in 2.26 in (1930)
Month to date precipitation 1.18 0.63  
Year to date precipitation 42.61 38.94  
Snow  
Snow T in - - ()
Month to date snowfall 1.4  
Since 1 July snowfall 1.4  
Snow Depth T in    
Sea Level Pressure  
Sea Level Pressure 29.95 in    
Wind  
Wind Speed 17 mph (WNW)    
Max Wind Speed 30 mph    
Max Gust Speed 46 mph    
Visibility 10 miles    
Events Snow    
T = Trace of Precipitation, MM = Missing Value Source: NWS Daily Summary

Daily Weather History Graph

Daily Weather History Graph

Search for Another Location

Airport:

Trip Planner

Search our weather history database for the weather conditions in past years. The results will help you decide how hot, cold, wet, or windy it might be!

Date:

Astronomy

Dec. 06, 2010 Rise Set
Actual Time 7:19 AM EST 5:02 PM EST
Civil Twilight 6:50 AM EST 5:30 PM EST
Nautical Twilight 6:18 AM EST 6:03 PM EST
Astronomical Twilight 5:46 AM EST 6:34 PM EST
Moon 8:15 AM EST (12/6) 5:57 PM EST (12/6)
Length of Visible Light 10h 40m
Length of Day
9h 42m
New Moon, 1% of the Moon is Illuminated
Dec 6
New Moon
Dec 13
First Quarter
Dec 21
Full
Dec 27
Last Quarter
Jan 4
New

Hourly Weather History & Observations

Time (EST) Temp. Windchill Dew Point Humidity Pressure Visibility Wind Dir Wind Speed Gust Speed Precip Events Conditions
12:54 AM 30.9 °F 19.8 °F 14.0 °F 50% 29.99 in 10.0 mi WNW 16.1 mph 35.7 mph N/A   Overcast
1:54 AM 30.9 °F 19.4 °F 12.0 °F 46% 29.99 in 10.0 mi WNW 17.3 mph 33.4 mph N/A   Overcast
2:54 AM 28.9 °F 17.7 °F 17.1 °F 61% 29.99 in 7.0 mi WNW 15.0 mph 33.4 mph 0.00 in Snow Light Snow
3:54 AM 28.9 °F 16.1 °F 12.9 °F 51% 29.99 in 10.0 mi WNW 19.6 mph 29.9 mph 0.00 in   Overcast
4:54 AM 28.9 °F 16.1 °F 12.0 °F 49% 29.98 in 10.0 mi WNW 19.6 mph 34.5 mph N/A   Overcast
5:54 AM 28.0 °F 14.3 °F 10.0 °F 47% 29.98 in 10.0 mi WNW 21.9 mph 38.0 mph N/A   Overcast
6:54 AM 27.0 °F 12.2 °F 10.0 °F 49% 29.99 in 10.0 mi NW 24.2 mph 36.8 mph N/A   Overcast
7:54 AM 26.1 °F 12.3 °F 12.0 °F 55% 29.98 in 10.0 mi WNW 19.6 mph 27.6 mph N/A   Overcast
8:54 AM 27.0 °F 12.2 °F 10.0 °F 49% 29.98 in 10.0 mi NW 24.2 mph 29.9 mph N/A   Overcast
9:54 AM 27.0 °F 15.2 °F 10.0 °F 49% 29.98 in 10.0 mi NW 15.0 mph 28.8 mph N/A   Mostly Cloudy
10:54 AM 28.0 °F 15.7 °F 9.0 °F 45% 29.96 in 10.0 mi WNW 17.3 mph - N/A   Overcast
11:54 AM 28.0 °F 18.6 °F 9.0 °F 45% 29.95 in 10.0 mi NW 10.4 mph 21.9 mph N/A   Overcast
12:54 PM 28.9 °F 16.1 °F 8.1 °F 41% 29.93 in 10.0 mi WNW 19.6 mph 25.3 mph N/A   Mostly Cloudy
1:54 PM 28.9 °F 16.9 °F 9.0 °F 43% 29.91 in 10.0 mi WNW 17.3 mph 27.6 mph N/A   Mostly Cloudy
2:54 PM 28.0 °F 16.5 °F 10.0 °F 47% 29.91 in 10.0 mi WNW 15.0 mph 25.3 mph N/A   Overcast
3:54 PM 27.0 °F 15.2 °F 9.0 °F 47% 29.93 in 10.0 mi WNW 15.0 mph - N/A   Overcast
4:54 PM 26.1 °F 13.1 °F 8.1 °F 47% 29.92 in 10.0 mi WNW 17.3 mph 29.9 mph N/A   Mostly Cloudy
5:54 PM 25.0 °F 13.6 °F 7.0 °F 46% 29.92 in 10.0 mi WNW 12.7 mph 23.0 mph N/A   Overcast
6:54 PM 24.1 °F 12.0 °F 6.1 °F 46% 29.93 in 10.0 mi West 13.8 mph 31.1 mph N/A   Mostly Cloudy
7:54 PM 24.1 °F 12.0 °F 6.1 °F 46% 29.92 in 10.0 mi WNW 13.8 mph 21.9 mph N/A   Mostly Cloudy
8:54 PM 24.1 °F 12.5 °F 7.0 °F 48% 29.92 in 10.0 mi WNW 12.7 mph 28.8 mph N/A   Overcast
9:54 PM 24.1 °F 10.6 °F 7.0 °F 48% 29.91 in 10.0 mi WNW 17.3 mph 28.8 mph N/A   Overcast
10:54 PM 23.0 °F 9.6 °F 7.0 °F 50% 29.91 in 10.0 mi WNW 16.1 mph 27.6 mph N/A   Overcast
11:54 PM 23.0 °F 9.6 °F 7.0 °F 50% 29.90 in 10.0 mi WNW 16.1 mph 31.1 mph N/A   Overcast